This is the latest recevied weather packets stored in our database for station/object WX2P-13. If no packets are shown the sender has not sent any weather packets the latest 10 day(s).
| Time | Temp. | Humidity | Pressure | Rain* | Wind** | Luminosity | Snow |
|---|---|---|---|---|---|---|---|
| 1777755696 | 22.22° C | 99% | 1010 hPa | 0 mm | - | 72 W/m² | - |
| 1777754484 | 22.22° C | 99% | 1010.4 hPa | 0 mm | - | 65 W/m² | - |
| 1777754181 | 22.22° C | 99% | 1010.7 hPa | 0 mm | - | 94 W/m² | - |
| 1777753573 | 22.22° C | 99% | 1010.5 hPa | 0 mm | - | 118 W/m² | - |
| 1777753266 | 22.78° C | 99% | 1010.6 hPa | 0 mm | - | 111 W/m² | - |
| 1777752962 | 22.22° C | 99% | 1010.7 hPa | 0 mm | - | 86 W/m² | - |
| 1777752658 | 22.22° C | 99% | 1010.3 hPa | 0 mm | - | 62 W/m² | - |
| 1777752355 | 22.22° C | 99% | 1009.9 hPa | 0 mm | - | 110 W/m² | - |
| 1777752052 | 21.67° C | 99% | 1009.8 hPa | 0 mm | - | 95 W/m² | - |
| 1777751750 | 21.67° C | 99% | 1009.6 hPa | 0 mm | - | 108 W/m² | - |
| 1777751446 | 21.67° C | 99% | 1009.8 hPa | 0 mm | - | 98 W/m² | - |
| 1777751143 | 21.67° C | 99% | 1010.2 hPa | 0 mm | - | 115 W/m² | - |
| 1777750839 | 21.11° C | 99% | 1010.2 hPa | 0 mm | - | 73 W/m² | - |
| 1777750536 | 21.11° C | 98% | 1010.6 hPa | 0 mm | - | 49 W/m² | - |
| 1777750233 | 21.11° C | 98% | 1011.5 hPa | 1.27 mm | - | 37 W/m² | - |
| 1777749928 | 21.11° C | 98% | 1011.1 hPa | 3.05 mm | - | 27 W/m² | - |
| 1777749626 | 21.11° C | 98% | 1011.3 hPa | 3.05 mm | - | 22 W/m² | - |
| 1777749323 | 21.11° C | 98% | 1012.3 hPa | 4.32 mm | - | 8 W/m² | - |
| 1777749021 | 21.11° C | 98% | 1012.2 hPa | 3.05 mm | - | 13 W/m² | - |
| 1777748718 | 20.56° C | 98% | 1011.4 hPa | 3.05 mm | - | 23 W/m² | - |
| 1777748110 | 20.56° C | 98% | 1011.7 hPa | 4.83 mm | - | 20 W/m² | - |
| 1777747807 | 20.56° C | 98% | 1011.8 hPa | 4.32 mm | - | 19 W/m² | - |
| 1777747199 | 20.56° C | 98% | 1012.3 hPa | 3.05 mm | - | 16 W/m² | - |
| 1777746895 | 20.56° C | 98% | 1012.1 hPa | 3.05 mm | - | 15 W/m² | - |
| 1777746590 | 20.56° C | 97% | 1012.3 hPa | 1.78 mm | - | 16 W/m² | - |
* Rain latest hour (hover to see other rain measurements)
** Current wind speed in m/s (hover to see current wind gust speed)